C/2019 O3 ( Palomar )

Japanese version
Home page
Updated on May 4, 2021

---------------------------------------------------------------------

* Profile

Discovery Date July 26, 2019
Magnitude 19.3 mag
Discoverer Q.-Z. Ye (Oschin Schmidt telescope, Palomar)

* Pictures

* Orbital Elements

Epoch 2021 Mar. 7.0 TT = JDT 2459280.5
T 2021 Mar. 7.96679 TT                                  Rudenko
q   8.8194552            (2000.0)            P               Q
z  -0.0002583      Peri.   60.04922     +0.25490772     -0.43681628
 +/-0.0000007      Node   300.38086     -0.73851602     +0.48795103
e   1.0022777      Incl.   89.81517     +0.62419239     +0.75570850
From 535 observations 2019 May 14-2021 Apr. 30, mean residual 0".4.

* Finding Charts

* Magnitudes Graph

        m1 = -73.5 + 5 log d + 90 log r

---------------------------------------------------------------------

The orbital elements are published on M.P.E.C. 2021-J28.
The charts are made with StellaNavigator Ver.10 (AstroArts).
The magnitudes graphs are made with Comet for Windows.

---------------------------------------------------------------------

Copyright(C) Seiichi Yoshida (comet@aerith.net). All rights reserved.